This demonstration page uses our WeatherBlox Daily Observations layout. Learn more.

41.55636, -103.73856

Hourly Observations for January 23, 2018

Temp ( °F °C ) Dew Point ( °F °C ) Humidity (%) Winds ( mph kmh ) Pressure ( in mb ) Visibility ( mi km ) Precip ( " mm )
12:53 am 00:53 Cloudy 27 -2.8 18 -7.8 69 69 WNW 12 19 30.18 1022 10 16.09344 0 0
1:53 am 01:53 Mostly Cloudy 26 -3.3 19 -7.2 75 75 NW 7 11 30.21 1023 10 16.09344 0 0
2:53 am 02:53 Mostly Cloudy 24 -4.4 17 -8.3 75 75 WNW 8 13 30.21 1023 10 16.09344 0 0
3:53 am 03:53 Cloudy 25 -3.9 17 -8.3 72 72 WNW 10 17 30.21 1023 10 16.09344 0 0
4:53 am 04:53 Mostly Cloudy 23 -5 16 -8.9 74 74 W 10 17 30.24 1024 10 16.09344 0 0
5:53 am 05:53 Mostly Cloudy 24 -4.4 16 -8.9 71 71 WNW 10 17 30.24 1024 10 16.09344 0 0
6:53 am 06:53 Clear 22 -5.6 15 -9.4 75 75 WNW 13 20 30.27 1025 10 16.09344 0 0
7:53 am 07:53 Sunny 20 -6.7 14 -10 78 78 NW 8 13 30.33 1027 10 16.09344 0 0
8:53 am 08:53 Sunny 23 -5 15 -9.4 72 72 WNW 10 17 30.33 1027 10 16.09344 0 0
9:53 am 09:53 Sunny 26 -3.3 17 -8.3 69 69 WNW 14 22 30.36 1028 10 16.09344 0 0
10:53 am 10:53 Sunny 29 -1.7 18 -7.8 63 63 WNW 13 20 30.36 1028 10 16.09344 0 0
11:53 am 11:53 Sunny 32 0 20 -6.7 61 61 WNW 12 19 30.3 1026 10 16.09344 0 0
12:53 pm 12:53 Sunny 33 0.6 21 -6.1 61 61 WNW 14 22 30.3 1026 10 16.09344 0 0
1:53 pm 13:53 Sunny 34 1.1 21 -6.1 59 59 WNW 14 22 30.3 1026 10 16.09344 0 0
2:53 pm 14:53 Sunny 34 1.1 21 -6.1 59 59 WNW 15 24 30.3 1026 10 16.09344 0 0
3:53 pm 15:53 Sunny 33 0.6 21 -6.1 61 61 WNW 12 19 30.33 1027 10 16.09344 0 0
4:53 pm 16:53 Sunny 29 -1.7 19 -7.2 66 66 W 7 11 30.36 1028 10 16.09344 0 0
5:53 pm 17:53 Clear 26 -3.3 17 -8.3 69 69 W 6 9 30.36 1028 10 16.09344 0 0
6:53 pm 18:53 Clear 20 -6.7 15 -9.4 81 81 NW 6 9 30.39 1029 10 16.09344 0 0
7:53 pm 19:53 Clear 20 -6.7 14 -10 78 78 N 7 11 30.39 1029 10 16.09344 0 0
8:53 pm 20:53 Clear 16 -8.9 11 -11.7 80 80 Calm 30.39 1029 10 16.09344 0 0
9:53 pm 21:53 Clear 13 -10.6 8 -13.3 81 81 Calm 30.39 1029 10 16.09344 0 0
10:53 pm 22:53 Clear 12 -11.1 8 -13.3 84 84 S 6 9 30.36 1028 10 16.09344 0 0
11:53 pm 23:53 Clear 10 -12.2 7 -13.9 87 87 Calm 30.36 1028 10 16.09344 0 0

Powered by AerisWeather